Flag for Canada Weather past 2 weeks in Iqaluit, Nunavut Territory, Canada

Now
43 °F

Light rain. Mostly cloudy.


Feels Like: 39 °F
Forecast: N/A
Wind: 7 mph from Northwest

Location: Iqaluit

Current Time: Sep 18, 2014 at 6:58:01 PM

Latest Report: Sep 18, 2014 at 6:00 PM


Visibility: 12 mi

Pressure: 29.61 "Hg

Humidity: 87%

Dew point: 39 °F

Location of IqaluitLocation

Historic Weather in Iqaluit — Graph

°F

Iqaluit temperature yesterday

Maximum temperature yesterday: 48 °F (at 3:00 PM)
Minimum temperature yesterday: 36 °F (at 2:00 AM)
Average temperature yesterday: 41 °F

Past Weeks' High & Low Weather Summary

 TemperatureHumidityPressure
High52 °F (Sep 4, 4:00 PM)100% (Sep 9, 3:00 PM)29.86 "Hg (Sep 9, 3:00 PM)
Low27 °F (Sep 12, 6:00 AM)47% (Sep 4, 5:00 PM)29.34 "Hg (Sep 10, 2:00 PM)
Average38 °F77%29.64 "Hg
* Reported Sep 3 6:00 PM — Sep 18 6:00 PM, Iqaluit, Weather by CustomWeather, © 2014

Note: Actual official high and low records may vary slightly from our data, if they occured in-between our weather recording intervals... More about our weather records

Advertising

Iqaluit weather history for previous 24 hours

 ConditionsComfort  
Time TempWeatherWind HumidityBarometerVisibility
6:00 PM
Sep 18
43 °FLight rain. Mostly cloudy.7 mph87%29.61 "Hg12 mi
5:00 PM45 °FLight rain. Mostly cloudy.7 mph81%29.60 "Hg15 mi
4:00 PM45 °FLight rain. Mostly cloudy.6 mph81%29.59 "Hg20 mi
3:52 PM45 °FLight rain. Overcast.6 mph81%29.59 "Hg20 mi
3:00 PM43 °FBroken clouds.3 mph81%29.59 "Hg30 mi
2:00 PM43 °FBroken clouds.5 mph81%29.58 "Hg30 mi
1:00 PM43 °FPartly sunny.5 mph76%29.57 "Hg30 mi
12:00 PM41 °FBroken clouds.5 mph81%29.56 "Hg30 mi
11:00 AM39 °FBroken clouds.3 mph87%29.55 "Hg30 mi
10:00 AM39 °FPartly sunny.3 mph81%29.55 "Hg30 mi
9:00 AM41 °FPartly sunny.2 mph81%29.53 "Hg30 mi
8:00 AM39 °FPartly sunny.2 mph87%29.53 "Hg30 mi
7:00 AM41 °FPartly sunny.3 mph76%29.51 "Hg30 mi
6:00 AM41 °FMore clouds than sun.2 mph76%29.50 "Hg20 mi
5:00 AM41 °FLight snow. Overcast.6 mph76%29.49 "Hg15 mi
4:00 AM41 °FOvercast.6 mph76%29.48 "Hg15 mi
3:00 AM39 °FOvercast.5 mph81%29.48 "Hg15 mi
2:00 AM39 °FPassing clouds.No wind75%29.47 "Hg15 mi
1:00 AM39 °FPassing clouds.No wind75%29.47 "Hg15 mi
12:00 AM37 °FPassing clouds.2 mph81%29.46 "Hg15 mi
11:00 PM
Sep 17
39 °FPassing clouds.8 mph75%29.46 "Hg15 mi
10:00 PM41 °FPassing clouds.12 mph70%29.47 "Hg15 mi
9:00 PM41 °FPassing clouds.13 mph76%29.47 "Hg15 mi
8:00 PM41 °FPassing clouds.10 mph70%29.48 "Hg15 mi
7:00 PM43 °FPassing clouds.9 mph71%29.48 "Hg30 mi
6:00 PM45 °FPartly cloudy.8 mph66%29.48 "Hg30 mi
Weather by CustomWeather, © 2014

See weather overviewHow to use our weather pages